Regional Weather Roundup
Issued by NWS

Home | Current Version | Previous Version | Text Only | Print | Product List | Glossary Off
Versions: 1 2 3 4 5 6 7 8 9 10 11 12 13 14 15 16 17 18 19 20 21 22 23 24 25 26 27 28 29 30 31 32 33 34 35 36 37 38 39 40 41 42 43 44 45 46 47 48 49 50

000
ASUS43 KMPX 231010
RWRMN
WEATHER ROUNDUP FOR MINNESOTA
NATIONAL WEATHER SERVICE TWIN CITIES/CHANHASSEN MN
500 AM CDT WED APR 23 2014


NOTE: "FAIR" INDICATES FEW OR NO CLOUDS BELOW 12,000 FEET WITH NO
SIGNIFICANT WEATHER AND/OR OBSTRUCTIONS TO VISIBILITY. N/A MEANS
CURRENT SKY AND/OR WEATHER CONDITIONS ARE NOT AVAILABLE.

MNZ060>063-068>070-231100-
   Twin Cities Metro

CITY           SKY/WX    TMP DP  RH WIND       PRES   REMARKS
TWIN CITIES    CLOUDY    43  27  53 SE12      30.09S
ST PAUL        CLOUDY    43  27  53 SE8       30.10S
CRYSTAL        CLOUDY    45  25  45 SE9       30.07S
BLAINE         CLOUDY    45  28  53 SE8       30.08F
EDEN PRAIRIE   CLOUDY    45  26  47 SE9       30.07R
LAKEVILLE      CLOUDY    37  28  70 SE6       30.09R
SOUTH ST PAUL  CLOUDY    45  27  48 SE3       30.10S
LAKE ELMO      FAIR      41  28  60 SE6       30.10S
$$
MNZ001>005-007-008-013>017-022>024-027-028-231100-
   Northwest Minnesota

CITY           SKY/WX    TMP DP  RH WIND       PRES   REMARKS
BEMIDJI        MOCLDY    32  21  64 SE5       30.03R WCI  27
HALLOCK        CLOUDY    39  25  56 SE10      29.96S
ROSEAU         CLEAR     39  25  56 SE9       30.01F
WARROAD        CLEAR     30  25  80 E8        30.04S WCI  23
THIEF RVR FALL MOCLDY    37  23  56 E10       29.99S
CROOKSTON      MOCLDY    39  28  65 SE8       29.98R
FOSSTON        CLOUDY    37  21  52 SE6       30.00R
DETROIT LAKES  CLOUDY    43  28  56 SE12      30.00S
MOORHEAD       CLOUDY    46  30  53 SE12      29.95F
PARK RAPIDS    CLOUDY    38  23  55 SE7       30.02R
$$
MNZ006-009>011-018-025>026-231100-
   North Central Minnesota

CITY           SKY/WX    TMP DP  RH WIND       PRES   REMARKS
BAUDETTE       CLEAR     32  22  66 SE7       30.06S WCI  26
FLAG ISLAND    CLEAR     36  21  55 SE3       30.04F
INTL FALLS     CLEAR     26  21  81 SE3       30.08F
WASKISH        CLEAR     34  23  64 E6        30.05S WCI  29
BIG FORK       CLEAR     27  19  74 E5        30.07F WCI  21
LONGVILLE      MOCLDY    25  23  93 CALM      30.06R
GRAND RAPIDS   PTCLDY    34  18  51 SE5       30.07S WCI  30
CRANE LAKE     CLEAR     19  16  86 CALM      30.13S
ORR            CLEAR     23  19  86 CALM      30.07S
COOK           CLEAR     23  21  93 CALM      30.10S
$$
MNZ012-019>021-037-231100-
   Northeast Minnesota

CITY           SKY/WX    TMP DP  RH WIND       PRES   REMARKS
DULUTH         CLEAR     32  22  66 SE7       30.10S WCI  26
ELY            CLEAR     21  19  93 CALM      30.11F
HIBBING        CLEAR     24  20  84 N3        30.09S
EVELETH        CLEAR     23  21  93 CALM      30.11R
DULUTH HARBOR  CLEAR     30  28  93 CALM      30.15S
TWO HARBORS    CLEAR     25  19  80 CALM      30.11R
SILVER BAY     CLEAR     21  21 100 CALM      30.11S
GRAND MARAIS     N/A     28  24  85 NW3       30.15S
G MARAIS ARPRT CLEAR     19  16  86 W3        30.12S
$$
MNZ029>031-032-039>041-046>048-054>057-064-231100-
   West Central Minnesota

CITY           SKY/WX    TMP DP  RH WIND       PRES   REMARKS
FERGUS FALLS   CLOUDY    46  25  42 SE15G23   29.94F
WHEATON        LGT RAIN  46  39  76 SE17G24   29.97S
MORRIS         LGT RAIN  45  36  70 SE16      29.98S
ALEXANDRIA     CLOUDY    44  26  49 SE12      30.02R
ELBOW LAKE     CLOUDY    46  29  52 SE15G24   29.97F
WADENA         CLOUDY    41  27  56 SE7       30.03R
GLENWOOD       CLOUDY    45  28  53 SE12      30.02F
APPLETON       LGT RAIN  45  37  76 SE10      29.98R
BENSON         LGT RAIN  45  36  70 SE15G23   30.00S
ORTONVILLE     LGT RAIN  45  37  76 SE13      29.96S
MADISON        CLOUDY    48  39  71 SE17      29.97S
WILLMAR        LGT RAIN  45  32  61 SE13      30.03S
$$
MNZ033>034-036-042>043-049>051-058-059-231100-
   Central Minnesota

CITY           SKY/WX    TMP DP  RH WIND       PRES   REMARKS
ST CLOUD       CLOUDY    43  25  49 SE7       30.06R
SAUK CENTRE    FAIR      43  27  54 SE10      30.04R
PAYNESVILLE    CLOUDY    44  26  49 SE9       30.04S
AITKIN         MOCLDY    32  25  74 CALM      30.06S
PINE RIVER     CLOUDY    36  25  64 SE6       30.08S
BRAINERD       CLOUDY    41  23  48 SE6       30.06R
STAPLES        CLOUDY    39  23  52 SE5       30.04R
LONG PRAIRIE   MOCLDY    41  27  56 SE7       30.05R
LITTLE FALLS   CLOUDY    41  25  52 SE8       30.06R
LITCHFIELD     CLOUDY    46  28  49 SE8       30.04F
BUFFALO        CLOUDY    45  26  47 SE6       30.08R
MAPLE LAKE     CLOUDY    45  29  53 SE7       30.07R
$$
MNZ037-044-045-052-053-231100-
   East Central Minnesota

CITY           SKY/WX    TMP DP  RH WIND       PRES   REMARKS
PRINCETON      CLOUDY    43  27  52 SE8       30.08S
MORA           CLOUDY    34  27  75 E3        30.10S
CAMBRIDGE      CLOUDY    43  28  56 SE7       30.07S
RUSH CITY      CLOUDY    36  25  64 SE3       30.10S
MOOSE LAKE     CLEAR     30  23  74 NE3       30.09R
HINCKLEY       FAIR      32  27  80 CALM      30.10F
CLOQUET        CLEAR     30  23  74 E3        30.10S
MCGREGOR       MOCLDY    34  27  75 E5        30.08S WCI  30
$$
MNZ071>073-080-081-089-090-097-098-231100-
   Southwest Minnesota

CITY           SKY/WX    TMP DP  RH WIND       PRES   REMARKS
MONTEVIDEO     DRIZZLE   43  39  87 S8        30.01R
GRANITE FALLS  LGT RAIN  45  36  70 E14G23    30.01R
CANBY          CLOUDY    47  38  71 SE14      29.97S
MARSHALL       CLOUDY    48  34  57 SE16      29.97R
REDWOOD FALLS  LGT RAIN  46  34  62 SE13      30.00F
OLIVIA         DRIZZLE   45  32  61 SE10G17   30.01S
PIPESTONE      CLOUDY    48  37  66 SE16      29.93F
WINDOM         CLOUDY    48  34  57 E10       29.99S
WORTHINGTON    MOCLDY    48  30  49 SE18G25   29.97F
JACKSON        CLOUDY    46  32  57 SE14      30.00S
TRACY          CLOUDY    49  33  53 SE14      29.99R
SLAYTON        CLOUDY    47  32  56 SE13      29.99R
$$
MNZ065>067-074>077-082>085-091>093-231100-
   South Central Minnesota

CITY           SKY/WX    TMP DP  RH WIND       PRES   REMARKS
MANKATO        CLOUDY    45  28  53 SE13      30.06S
NEW ULM        LGT RAIN  46  30  53 SE12      30.03F
ST JAMES       DRIZZLE   46  36  66 E9        30.03F
FAIRMONT       CLOUDY    45  32  61 SE15      30.03F
GLENCOE        CLOUDY    44  28  54 E8        30.06R
FARIBAULT      CLOUDY    46  25  42 E10       30.08S
OWATONNA       CLOUDY    43  28  56 SE13      30.08R
WASECA         CLOUDY    41  27  56 SE13      30.08S
ALBERT LEA     CLOUDY    45  28  53 SE10      30.07R
$$
MNZ078>079-086>088-094>096-231100-
   Southeast Minnesota

CITY           SKY/WX    TMP DP  RH WIND       PRES   REMARKS
ROCHESTER      CLOUDY    38  27  64 SE10      30.10R
RED WING       CLOUDY    41  27  56 E6        30.10S
STANTON        CLOUDY    43  27  52 SE10      30.08S
DODGE CENTER   CLOUDY    43  30  61 SE12      30.09S
WINONA         PTCLDY    37  30  75 CALM      30.14R
AUSTIN         CLOUDY    43  28  56 SE13      30.08S
PRESTON        CLOUDY    41  28  60 SE5       30.12R
$$
ABBREVIATIONS USED IN REMARKS
   TC - TEMPERATURES IN CELSIUS
  WCI - WIND CHILL INDEX
   HX - HEAT INDEX
  VSB - VISIBILITY
$$


USA.gov is the U.S. government's official web portal to all federal, state and local government web resources and services.